DMSP 5D-2 F14 DEB

基本信息
目录编号:
62940
目录名称:
DMSP 5D-2 F14 DEB
国际标识:
1997-012L
轨道中心:
EARTH
物体状态:
已陨落(2025-10-31)
发射日期:
1997-04-04 UTC
轨道信息
数据来源: 国际轨道数据
星历时间: 2025-10-11T11:16:42+0800
半长轴: 6911.076km
偏心率: 0.0012093
轨道倾角: 98.907°
近地点辐角: 11.460°
升交点赤经: 350.369°
平近点角: 348.690°
近地点: 524.583km
远地点: 541.299km
周期: 95.297分钟
每日圈数: 15.110691
详细信息
发射场:
AFWTR
轨道高度:
LEO
数据来源:
AOE Integration Group
参考系:
TEME
时间系统:
UTC
历元类型:
SGP4
2D轨道图
3D轨道图
轨道高度分析图
轨道倾角分析图
轨道综合分析图
查看轨道综合分析图